Weather History for KVPZ - October, 2012

Change the Weather History Date:

Tuesday, October 23, 2012

  Actual Average Record
Temperature  
Mean Temperature 63 °F 50 °F  
Max Temperature 68 °F 60 °F 71 °F (2000)
Min Temperature 58 °F 41 °F 30 °F (2014)
Degree Days  
Heating Degree Days 2 15  
Month to date heating degree days 300 272  
Since 1 July heating degree days 435 402  
Cooling Degree Days 0 0  
Month to date cooling degree days 1 11  
Year to date cooling degree days 1050 713  
Growing Degree Days 12 (Base 50)    
Moisture  
Dew Point 59 °F    
Average Humidity 90    
Maximum Humidity 100    
Minimum Humidity 78    
Precipitation  
Precipitation 0.12 in 0.11 in 1.71 in (2009)
Month to date precipitation 2.57 2.45  
Year to date precipitation 23.25 31.20  
Sea Level Pressure  
Sea Level Pressure 29.95 in    
Wind  
Wind Speed 6 mph (South)    
Max Wind Speed 18 mph    
Max Gust Speed 26 mph    
Visibility 8 miles    
Events Rain    
T = Trace of Precipitation, MM = Missing Value Source: NWS Daily Summary

Daily Weather History Graph

Daily Weather History Graph

Search for Another Location

Airport or City:

Trip Planner

Search our weather history database for the weather conditions in past years. The results will help you decide how hot, cold, wet, or windy it might be!

Date:

Astronomy

Oct. 23, 2012 Rise Set
Actual Time 7:09 AM CDT 5:54 PM CDT
Civil Twilight 6:41 AM CDT 6:22 PM CDT
Nautical Twilight 6:08 AM CDT 6:54 PM CDT
Astronomical Twilight 5:36 AM CDT 7:26 PM CDT
Moon 2:41 PM CDT (10/23) 12:57 AM CDT (10/23)
Length of Visible Light 11h 41m
Length of Day
10h 44m
Waxing Gibbous, 67% of the Moon is Illuminated
Oct 23
Waxing Gibbous
Oct 29
Full
Nov 6
Last Quarter
Nov 13
New
Nov 20
First Quarter

Hourly Weather History & Observations

Time (CDT) Temp. Dew Point Humidity Pressure Visibility Wind Dir Wind Speed Gust Speed Precip Events Conditions
12:53 AM 62.1 °F 59.0 °F 90% 29.93 in 10.0 mi Calm Calm - N/A   Mostly Cloudy
1:53 AM 63.0 °F 60.1 °F 90% 29.94 in 10.0 mi Calm Calm - N/A   Overcast
2:39 AM 62.6 °F 59.0 °F 88% 29.93 in 10.0 mi South 4.6 mph - N/A   Overcast
2:53 AM 62.1 °F 59.0 °F 90% 29.92 in 10.0 mi South 6.9 mph - N/A   Overcast
3:53 AM 63.0 °F 57.9 °F 84% 29.91 in 10.0 mi SSW 3.5 mph - N/A   Overcast
4:53 AM 63.0 °F 57.0 °F 81% 29.92 in 10.0 mi SW 4.6 mph - N/A   Overcast
5:53 AM 63.0 °F 55.9 °F 78% 29.90 in 10.0 mi Calm Calm - N/A   Overcast
6:53 AM 61.0 °F 55.9 °F 83% 29.92 in 10.0 mi South 4.6 mph - N/A   Overcast
7:53 AM 62.1 °F 55.0 °F 78% 29.96 in 10.0 mi South 10.4 mph - N/A   Overcast
8:44 AM 60.8 °F 57.2 °F 88% 29.98 in 9.0 mi SSW 8.1 mph - 0.00 in Rain Light Rain
8:53 AM 60.1 °F 57.9 °F 93% 29.98 in 7.0 mi SSW 8.1 mph - 0.01 in Rain Light Rain
9:22 AM 60.8 °F 59.0 °F 94% 29.96 in 6.0 mi SSE 4.6 mph - 0.01 in Rain Light Rain
9:43 AM 60.8 °F 59.0 °F 94% 29.97 in 6.0 mi SSW 6.9 mph - 0.01 in   Overcast
10:50 AM 62.6 °F 60.8 °F 94% 29.97 in 7.0 mi SSW 11.5 mph - N/A   Overcast
10:53 AM 63.0 °F 62.1 °F 97% 29.97 in 7.0 mi SSW 13.8 mph - N/A   Overcast
11:42 AM 62.6 °F 60.8 °F 94% 29.97 in 3.0 mi SSW 10.4 mph - 0.03 in Rain Light Rain
12:03 PM 62.6 °F 60.8 °F 94% 29.96 in 4.0 mi South 11.5 mph - 0.02 in Rain Light Rain
12:14 PM 60.8 °F 60.8 °F 100% 29.95 in 5.0 mi South 10.4 mph - 0.03 in Rain Light Rain
12:53 PM 63.0 °F 60.1 °F 90% 29.95 in 10.0 mi SW 9.2 mph - 0.03 in   Mostly Cloudy
1:09 PM 64.4 °F 60.8 °F 88% 29.95 in 10.0 mi SSW 12.7 mph - N/A   Scattered Clouds
1:53 PM 64.9 °F 60.1 °F 84% 29.93 in 10.0 mi South 11.5 mph 18.4 mph 0.01 in   Mostly Cloudy
2:53 PM 66.9 °F 60.1 °F 79% 29.92 in 10.0 mi SSW 12.7 mph 23.0 mph N/A   Mostly Cloudy
3:53 PM 64.9 °F 59.0 °F 81% 29.93 in 10.0 mi SSW 9.2 mph - N/A   Overcast
4:53 PM 64.9 °F 59.0 °F 81% 29.93 in 10.0 mi SSW 8.1 mph - N/A   Overcast
5:53 PM 63.0 °F 60.1 °F 90% 29.94 in 10.0 mi South 5.8 mph - N/A   Partly Cloudy
6:53 PM 62.1 °F 59.0 °F 90% 29.95 in 10.0 mi South 4.6 mph - N/A   Clear
7:53 PM 61.0 °F 59.0 °F 93% 29.95 in 10.0 mi South 4.6 mph - N/A   Clear
8:53 PM 60.1 °F 57.9 °F 93% 29.96 in 9.0 mi SE 3.5 mph - N/A   Mostly Cloudy
9:53 PM 59.0 °F 57.0 °F 93% 29.96 in 3.0 mi ESE 3.5 mph - N/A   Mostly Cloudy
10:04 PM 57.2 °F 57.2 °F 100% 29.96 in 2.5 mi ESE 3.5 mph - N/A   Mostly Cloudy
10:12 PM 59.0 °F 57.2 °F 94% 29.96 in 3.0 mi Calm Calm - N/A   Mostly Cloudy
10:53 PM 61.0 °F 59.0 °F 93% 29.96 in 8.0 mi Calm Calm - N/A   Overcast
11:53 PM 60.1 °F 59.0 °F 96% 29.97 in 5.0 mi Calm Calm - N/A   Overcast